Regional Weather Roundup
Issued by NWS

Home | Current Version | Previous Version | Text Only | Print | Product List | Glossary On
Versions: 1 2 3 4 5 6 7 8 9 10 11 12 13 14 15 16 17 18 19 20 21 22 23 24 25 26 27 28 29 30 31 32 33 34 35 36 37 38 39 40 41 42 43 44 45 46 47 48 49 50
000
ASUS45 KABQ 231710
RWRNM
WEATHER ROUNDUP FOR NEW MEXICO
NATIONAL WEATHER SERVICE ALBUQUERQUE NM
1100 AM MDT WED APR 23 2014

NOTE: "FAIR" MEANS FEW OR NO CLOUDS BELOW 12,000 FEET AGL WITH NO
       SIGNIFICANT WEATHER OR OBSTRUCTIONS TO VISION.

      THIS PRODUCT IS RELEASED AS TWO VERSIONS.  ONE VERSION NEAR
      THE TOP OF THE HOUR CONTAINING PRELIMINARY DATA FROM ALBUQUERQUE
      AND OTHER STATIONS.  A FINAL VERSION WITH ADDITIONAL DATA IS
      ISSUED ABOUT 10 MINUTES AFTER THE HOUR.

NMZ501-503-504-510>518-231800-
NORTHWEST PLATEAU/NORTHCENTRAL MOUNTAINS

CITY           SKY/WX    TMP DP  RH WIND       PRES   REMARKS
FARMINGTON     SUNNY     62  20  19 W8        29.84S
LOS ALAMOS     SUNNY     60  21  22 SW15G25   29.93S
SANTA FE       SUNNY     65  22  19 W17G26    29.89F
TAOS           SUNNY     61  21  21 SW22G30   29.91F
ANGEL FIRE     FAIR      55  23  28 SW15G37   29.92F

$$
NMZ402-403-502-505>509-231800-
WESTCENTRAL MOUNTAINS/SOUTHWEST MOUNTAINS

CITY           SKY/WX    TMP DP  RH WIND       PRES   REMARKS
GALLUP         MOSUNNY   60  23  24 SW25G40   29.91F
GRANTS         SUNNY     62  21  20 W16G29    29.94F
SILVER CITY    SUNNY     66  16  14 SW16G26   29.97S

$$
NMZ407-409-411-412-231800-
SOUTHERN DESERTS

CITY           SKY/WX    TMP DP  RH WIND       PRES   REMARKS
LORDSBURG      FAIR      70  25  18 W9G22     29.93S
DEMING         SUNNY     74  23  15 W18G25    29.90F
LAS CRUCES     SUNNY     74  21  13 SW17G36   29.92F
HOLLOMAN AFB   MOSUNNY   76  25  15 S12G20    29.89S
ALAMOGORDO     MOSUNNY   75  23  14 SW12G23   29.90F
T OR C         SUNNY     73  17  12 SW14      29.87F

$$
NMZ519>523-231800-
CENTRAL VALLEYS/CENTRAL HIGHLANDS

CITY           SKY/WX    TMP DP  RH WIND       PRES   REMARKS
ALBUQUERQUE    MOSUNNY   68  23  18 SW14G25   29.88F
DOUBLE EAGLE   MOSUNNY   66  23  19 SW13G25   29.90F
MORIARTY ARPT  FAIR      66  21  18 W15G24    29.92S
CLINES CORNERS SUNNY     64  23  21 W23G30    29.91F
BELEN          FAIR      69  21  16 SW15G23   29.88F
SOCORRO        FAIR      73  19  13 CALM      29.86F

$$
NMZ524>526-539-540-231800-
SOUTHCENTRAL MOUNTAINS

CITY           SKY/WX    TMP DP  RH WIND       PRES   REMARKS
RUIDOSO        MOSUNNY   63  19  19 SW25G33   29.97F

$$
NMZ527>531-231800-
NORTHEAST HIGHLANDS/NORTHEAST PLAINS

CITY           SKY/WX    TMP DP  RH WIND       PRES   REMARKS
LAS VEGAS      SUNNY     64  23  21 SW23G31   29.89S
RATON          SUNNY     69  22  16 SW16G32   29.78F
CLAYTON        PTSUNNY   70  39  32 SW22G30   29.74F

$$
NMZ532>537-231800-
EASTCENTRAL PLAINS

CITY           SKY/WX    TMP DP  RH WIND       PRES   REMARKS
TUCUMCARI      CLOUDY    75  43  31 SW17      29.76F
CANNON AFB     CLOUDY    76  38  25 SW24G31   29.82S
CLOVIS AIRPORT PTSUNNY   77  46  33 SW23G29   29.84F

$$
NMZ028-029-538-231800-
SOUTHEAST PLAINS

CITY           SKY/WX    TMP DP  RH WIND       PRES   REMARKS
ROSWELL        MOSUNNY   83  24  11 W17G28    29.80F
ARTESIA        PTSUNNY   79  27  14 SW23G32   29.82F
CARLSBAD       CLOUDY    81  24  12 W21G29    29.83F
HOBBS          PTSUNNY   79  45  29 SW16G22   29.86F


$$



USA.gov is the U.S. government's official web portal to all federal, state and local government web resources and services.